BREEZE-M DEB, 41317

Orbit data source: Space-Track

BREEZE-M DEB, 41317 is space debris in HEO originally from a launch on Thu, 17 May 2012 UTC launched from the Tyuratam Missile And Space Complex (TTMTR). Debris objects in space refer to the collection of defunct objects orbiting the Earth. Examples of debris include non-operational satellites, rocket bodies, and fragments generated from explosions, collisions, or faulty payload assembly.

Loading next visibility...
Identifier
41317, 2012-026D
Orbit
HEO
Country
Flag of CISCIS
Related business
Manufacturer
Khrunichev
Mission
Spacecraft
Bus & Motor
Unknown
Mass
Unknown
Launch date (UTC)
2012-05-17 (13 years ago)
Launch vehicle
Unknown
Launch site
Tyuratam Missile And Space Complex (TTMTR)
Object type
Payload
Rocket body
Debris
Shape & HBR
Unknown shape, 1.1 m
Radar Cross Section
Medium (>0.1 m² and <1 m²)

Expand to show TLE details & history
Last TLE update: 20 hours ago

TLE from 20 hours ago
0 BREEZE-M DEB
1 41317U 12026D   25308.85367016 -.00000037  00000-0  00000-0 0  9992
2 41317  10.1558 147.0680 4085965  27.7106 349.3421  1.79269429 64560
Epoch: 2025-11-04T20:29Z
TLE epoch observation values (Epoch: 2025-11-04T20:29:17.101Z)
Latitude
Longitude
155.48067°
Altitude
11,137.202 km
Speed
5.62 km/s
True Right ascension
09h 48m 32s
True Declination
0° 00' 00"
Sunlit
Object was in daylight at epoch
Visualization orbit readout
Latitude
Unknown
Longitude
Unknown
Altitude
Unknown
Speed
Unknown
Apparent Right ascension
Unknown
Apparent Declination
Unknown
Sunlit
N/A
Visualization observer readout
Local Sidereal Time
12:26:25
Azimuth
Unknown
Elevation
Unknown
Doppler factor
Unknown
Orbital elements
Apogee altitude
33,944.336 km
Perigee altitude
10,551.375 km
Semi-major axis
28,625.993 km
Eccentricity
0.4086
Inclination
10.1558°
RAAN
147.068°
Arg. of periapsis
27.7106°
True anomaly
332.7917°
Mean anomaly
349.3421°
Eccentric anomaly
342.17629°
Mean motion
0.44813 °/min
Orbital period
803.34 mins
BSTAR
0
Loading maneuver chart data...
Computing Atmospheric mass density...
Loading historical data...
Loading historical data...
Loading historical data...
Loading historical data...
Loading historical data...
Loading historical data...
Loading historical data...

Documentation

Showing up to 5 results
|